Location: Newark
(40.9833°N, 0.0333°W)
Time: 14:42:04
(UTC+00:00)

Explorer 7 - Visible Passes

Search period start: 31 October 2020 00:00
Search period end: 10 November 2020 00:00
Orbit: 484 x 678 km, 50.3° (Epoch: 31 October)

Date Brightness Start Highest point End Pass type
(mag) Time Alt. Az. Time Alt. Az. Time Alt. Az.
31 Oct 7.3 17:26:36 10° NW 17:30:19 41° NNE 17:34:12 10° E visible
31 Oct 7.9 19:07:03 10° WNW 19:10:48 39° SW 19:10:56 39° SW visible
01 Nov 6.8 17:31:14 10° NW 17:35:06 59° NNE 17:39:09 10° ESE visible
01 Nov 8.7 19:12:05 10° W 19:15:22 24° SW 19:16:06 23° SSW visible
02 Nov 6.7 17:35:55 10° WNW 17:39:49 90° SW 17:43:56 10° SE visible
02 Nov 9.5 19:17:37 10° W 19:19:53 15° SW 19:21:32 12° SSW visible
03 Nov 7.4 17:40:39 10° WNW 17:44:28 55° SW 17:48:29 10° SE visible
04 Nov 8.5 17:45:32 10° WNW 17:49:04 33° SW 17:52:45 10° SSE visible
05 Nov 9.4 17:50:41 10° W 17:53:37 20° SW 17:56:38 10° S visible
06 Nov 9.9 17:56:37 10° WSW 17:58:06 12° SW 17:59:35 10° SSW visible
